Date String (YYYY-MM-DD hh:mm:ss) UTC,Instrument flags,Ambient pressure (hPa),Sample flow (lpm),Bypass flow (lpm),Sample temperature (°C),Ambient temperature (°C),ASC tube jacket temperature (°C),LED temperature (°C),Box temperature (°C),Sample RH (%),Span deviation,Mass concentration (μg/m³),Mass concentration (μg/m³),Mass concentration (μg/m³)
DateTimeUTC,F1_M11,P_M11,Q1_M11,Q2_M11,T1_M11,T2_M11,T3_M11,T4_M11,T5_M11,U1_M11,ZSPAN_M11,X0_M11,X2_M11,X1_M11
2023-01-02 20:00:00,,0815.2,4.99,0.00,22.7,21.2,00.0,31.6,24.4,15.6,-000.9,0008.09,0005.79,0005.70
2023-01-02 20:01:00,,0815.3,5.00,0.00,22.7,21.4,00.0,31.5,24.5,15.6,-001.1,0008.11,0005.77,0005.66
2023-01-02 20:02:00,,0815.3,5.00,0.00,22.8,22.4,00.0,31.5,24.7,15.6,-001.6,0008.09,0005.72,0005.60
2023-01-02 20:03:00,,0815.3,5.00,0.00,22.9,23.0,00.0,31.5,24.9,15.5,-001.6,0008.05,0005.69,0005.57
2023-01-02 20:04:00,,0815.3,5.00,0.00,22.9,22.7,00.0,31.6,24.9,15.5,-001.9,0008.04,0005.68,0005.55
2023-01-02 20:05:00,,0815.4,4.99,0.00,22.9,22.3,00.0,31.6,24.8,15.5,-002.0,0008.00,0005.66,0005.54
2023-01-02 20:06:00,,0815.3,4.99,0.00,22.9,22.0,00.0,31.7,24.7,15.6,-002.0,0008.01,0005.67,0005.56
2023-01-02 20:07:00,,0815.3,5.00,0.00,22.9,21.7,00.0,31.7,24.6,15.6,-002.4,0008.03,0005.70,0005.58
2023-01-02 20:08:00,,0815.3,5.00,0.00,22.8,21.5,00.0,31.7,24.5,15.7,-002.4,0008.13,0005.77,0005.64
2023-01-02 20:09:00,,0815.2,5.00,0.00,22.8,21.4,00.0,31.7,24.5,15.7,-002.2,0008.22,0005.84,0005.70
2023-01-02 20:10:00,,0815.2,5.01,0.00,22.8,21.3,00.0,31.6,24.4,15.8,-000.3,0008.27,0005.90,0005.75
2023-01-02 20:11:00,,0815.2,5.01,0.00,22.8,21.2,00.0,31.6,24.4,15.7,0000.0,0008.24,0005.93,0005.80
2023-01-02 20:12:00,,0815.2,5.00,0.00,22.7,21.1,00.0,31.6,24.4,15.7,0000.0,0008.19,0005.94,0005.84
2023-01-02 20:13:00,,0815.2,5.00,0.00,22.7,21.0,00.0,31.6,24.3,15.7,0000.0,0008.22,0005.99,0005.91
2023-01-02 20:14:00,,0815.2,4.99,0.00,22.7,21.0,00.0,31.6,24.3,15.7,0000.0,0008.27,0006.04,0005.96
2023-01-02 20:15:00,,0815.2,4.99,0.00,22.6,21.0,00.0,31.6,24.3,15.7,0000.0,0008.29,0006.06,0005.99
2023-01-02 20:16:00,,0815.3,4.99,0.00,22.6,21.0,00.0,31.6,24.3,15.8,0000.0,0008.29,0006.07,0006.00
2023-01-02 20:17:00,,0815.3,5.01,0.00,22.6,21.3,00.0,31.5,24.3,15.8,0000.0,0008.25,0006.05,0005.98
2023-01-02 20:18:00,,0815.3,5.01,0.00,22.7,22.2,00.0,31.5,24.6,15.7,0000.0,0008.22,0006.03,0005.96
2023-01-02 20:19:00,,0815.3,5.00,0.00,22.8,23.2,00.0,31.5,24.9,15.6,0000.0,0008.15,0005.99,0005.93
2023-01-02 20:20:00,,0815.3,4.99,0.00,22.9,23.2,00.0,31.6,24.9,15.4,0000.0,0008.11,0005.93,0005.88
2023-01-02 20:21:00,,0815.3,4.99,0.00,22.9,22.8,00.0,31.6,24.9,15.4,0000.0,0008.09,0005.90,0005.84
2023-01-02 20:22:00,,0815.3,5.00,0.00,22.9,22.4,00.0,31.7,24.8,15.4,0000.0,0008.06,0005.89,0005.83
2023-01-02 20:23:00,,0815.3,5.01,0.00,22.9,22.1,00.0,31.7,24.7,15.4,0000.0,0008.05,0005.87,0005.81
2023-01-02 20:24:00,,0815.4,5.00,0.00,22.9,21.9,00.0,31.7,24.7,15.3,0000.0,0007.97,0005.81,0005.75
2023-01-02 20:25:00,,0815.3,4.99,0.00,22.9,21.7,00.0,31.7,24.7,15.3,0000.0,0007.90,0005.76,0005.70
2023-01-02 20:26:00,,0815.4,5.00,0.00,22.9,21.6,00.0,31.7,24.6,15.3,0000.0,0007.88,0005.72,0005.66
2023-01-02 20:27:00,,0815.3,4.98,0.00,22.9,21.5,00.0,31.7,24.6,15.3,0000.0,0007.88,0005.69,0005.63
2023-01-02 20:28:00,,0815.4,5.00,0.00,22.8,21.4,00.0,31.7,24.6,15.3,0000.0,0007.86,0005.65,0005.58
2023-01-02 20:29:00,,0815.3,5.00,0.00,22.8,21.4,00.0,31.7,24.5,15.3,0000.0,0007.83,0005.60,0005.53
2023-01-02 20:30:00,,0815.3,5.01,0.00,22.8,21.3,00.0,31.7,24.5,15.4,0000.0,0007.80,0005.57,0005.49
2023-01-02 20:31:00,,0815.4,5.00,0.00,22.8,21.3,00.0,31.7,24.5,15.4,0000.0,0007.77,0005.55,0005.48
2023-01-02 20:32:00,,0815.3,5.00,0.00,22.8,21.3,00.0,31.7,24.5,15.5,0000.0,0007.84,0005.56,0005.47
2023-01-02 20:33:00,,0815.4,5.00,0.00,22.8,21.3,00.0,31.7,24.5,15.5,0000.0,0007.92,0005.58,0005.46
2023-01-02 20:34:00,,0815.4,4.98,0.00,22.8,21.2,00.0,31.6,24.4,15.5,0000.0,0007.91,0005.55,0005.43
2023-01-02 20:35:00,,0815.4,5.00,0.00,22.7,21.2,00.0,31.6,24.4,15.6,0000.0,0007.90,0005.53,0005.41
2023-01-02 20:36:00,,0815.3,5.00,0.00,22.7,21.2,00.0,31.6,24.4,15.6,0000.0,0007.88,0005.52,0005.40
2023-01-02 20:37:00,,0815.3,4.99,0.00,22.7,21.1,00.0,31.6,24.4,15.5,0000.0,0007.85,0005.49,0005.37
2023-01-02 20:38:00,,0815.3,5.00,0.00,22.7,21.1,00.0,31.6,24.4,15.5,0000.0,0007.84,0005.48,0005.35
2023-01-02 20:39:00,,0815.3,5.00,0.00,22.7,21.1,00.0,31.6,24.3,15.5,0000.0,0007.83,0005.47,0005.34
2023-01-02 20:40:00,,0815.3,5.00,0.00,22.7,21.1,00.0,31.6,24.3,15.5,0000.0,0007.84,0005.47,0005.33
2023-01-02 20:41:00,,0815.3,5.00,0.00,22.7,21.1,00.0,31.6,24.4,15.5,0000.0,0007.84,0005.46,0005.31
2023-01-02 20:42:00,,0815.3,5.01,0.00,22.7,21.7,00.0,31.5,24.5,15.4,0000.0,0007.87,0005.45,0005.30
2023-01-02 20:43:00,,0815.3,5.01,0.00,22.8,22.7,00.0,31.5,24.8,15.4,0000.0,0007.78,0005.40,0005.25
2023-01-02 20:44:00,,0815.4,4.99,0.00,22.9,22.8,00.0,31.6,24.9,15.3,0000.0,0007.65,0005.32,0005.20
2023-01-02 20:45:00,,0815.4,4.99,0.00,22.9,22.4,00.0,31.6,24.8,15.3,0000.0,0007.62,0005.30,0005.18
2023-01-02 20:46:00,,0815.3,5.01,0.00,22.9,22.1,00.0,31.6,24.7,15.4,0000.0,0007.68,0005.32,0005.19
2023-01-02 20:47:00,,0815.3,5.00,0.00,22.9,21.9,00.0,31.6,24.7,15.4,0000.0,0007.77,0005.36,0005.22
2023-01-02 20:48:00,,0815.3,5.00,0.00,22.9,21.7,00.0,31.7,24.6,15.4,0000.0,0007.93,0005.44,0005.29
2023-01-02 20:49:00,,0815.2,5.00,0.00,22.8,21.5,00.0,31.7,24.6,15.5,0000.0,0008.05,0005.53,0005.37
2023-01-02 20:50:00,,0815.3,4.99,0.00,22.8,21.4,00.0,31.7,24.5,15.5,0000.0,0008.10,0005.60,0005.45
2023-01-02 20:51:00,,0815.4,5.01,0.00,22.8,21.3,00.0,31.6,24.4,15.6,0000.0,0008.23,0005.70,0005.53
2023-01-02 20:52:00,,0815.4,5.00,0.00,22.7,21.2,00.0,31.6,24.4,15.6,0000.0,0008.33,0005.78,0005.61
2023-01-02 20:53:00,,0815.2,5.00,0.00,22.7,21.1,00.0,31.6,24.4,15.6,0000.0,0008.33,0005.82,0005.66
2023-01-02 20:54:00,,0815.3,5.00,0.00,22.7,21.0,00.0,31.6,24.3,15.6,0000.0,0008.37,0005.88,0005.71
2023-01-02 20:55:00,,0815.3,5.00,0.00,22.7,21.0,00.0,31.6,24.3,15.6,0000.0,0008.47,0005.97,0005.78
2023-01-02 20:56:00,,0815.3,5.01,0.00,22.6,20.9,00.0,31.6,24.3,15.6,0000.0,0008.50,0006.03,0005.84
2023-01-02 20:57:00,,0815.3,5.01,0.00,22.6,20.9,00.0,31.6,24.2,15.6,0000.0,0008.48,0006.06,0005.89
2023-01-02 20:58:00,,0815.3,5.00,0.00,22.6,20.8,00.0,31.5,24.2,15.6,0000.0,0008.46,0006.08,0005.92
2023-01-02 20:59:00,,0815.3,5.00,0.00,22.5,20.8,00.0,31.5,24.2,15.6,0000.0,0008.37,0006.07,0005.91
